Theta_e
314 314 314 314 315 315 314 312 311 310 309 308 307 306 305 304 305 306 306 307 308 308 308 307 307 307 309 310 311 313 313 315 317 318 320 316 313 314 314 314 315 314 314 313 313 313 314 315 315 316 317 317 319 320 319 320 319 320 320 316 314 316 317 317 318 317 317 318 316 314 315 315 315 314 314 314 314 315 316 315 316 317 316 317 316 316 325 328
314 314 314 314 315 314 313 311 311 311 309 308 308 307 305 304 305 306 306 307 307 307 307 307 307 308 309 310 311 314 315 317 318 318 318 314 313 314 314 315 316 314 314 315 315 314 315 315 315 316 316 317 319 320 319 320 319 319 320 316 315 318 318 317 318 317 317 318 316 315 315 316 316 315 314 314 315 315 315 316 316 316 316 317 316 316 322 327
314 313 313 313 314 313 312 311 311 310 309 308 308 307 306 305 304 305 307 307 307 307 307 307 307 308 309 310 312 313 316 319 317 317 316 314 313 315 315 315 315 315 315 316 316 315 315 315 316 316 316 316 316 317 318 319 318 318 319 316 316 319 317 316 317 316 316 316 317 316 315 316 315 315 315 315 316 315 315 315 316 316 316 318 317 316 321 326
314 313 313 312 313 312 311 311 311 309 309 308 307 307 306 305 304 305 307 307 307 307 307 307 307 308 309 311 312 314 319 320 316 316 315 313 314 314 315 316 316 316 315 315 315 314 315 315 316 316 316 316 315 317 317 317 318 317 316 316 317 317 316 316 316 315 314 315 316 316 314 315 315 315 315 315 315 316 316 316 316 317 316 318 318 317 320 325
314 313 313 312 312 312 311 311 311 310 309 308 307 306 305 304 304 305 306 307 307 307 307 307 307 308 309 311 312 315 321 318 315 316 314 313 313 314 315 316 316 316 316 315 315 315 315 316 316 316 316 316 315 316 316 315 317 316 315 315 315 316 317 315 313 313 313 314 316 316 315 315 315 314 315 315 315 316 316 316 316 316 317 320 319 319 321 323
314 313 312 312 312 311 311 310 310 311 310 309 308 306 305 304 304 305 306 307 307 307 307 307 308 308 310 312 311 315 319 315 315 317 313 313 313 315 316 316 316 316 315 315 316 316 316 316 315 316 317 316 316 316 316 315 315 317 315 315 314 315 316 314 313 311 312 315 315 315 315 315 315 314 315 315 315 316 316 317 318 316 317 320 321 321 321 322
313 313 312 311 311 311 311 310 310 310 310 309 308 306 305 304 304 305 306 306 307 307 307 308 308 309 311 311 312 316 318 315 316 315 312 313 313 315 316 316 316 315 316 317 317 316 316 316 316 317 316 315 316 316 316 315 315 316 315 315 314 315 315 314 313 311 312 315 315 315 315 314 315 315 315 315 315 316 316 317 317 316 315 318 321 322 322 323
312 312 312 311 311 311 311 311 310 310 310 309 308 306 305 304 305 305 306 307 307 307 307 308 308 310 312 314 317 317 316 317 316 314 312 313 312 315 316 316 316 315 316 316 316 317 316 316 316 317 317 316 316 315 315 316 316 316 315 315 314 315 314 313 312 311 312 314 313 314 314 315 315 315 314 315 315 315 316 316 316 316 315 315 319 321 321 322
312 312 311 310 310 311 311 311 310 309 309 309 307 307 305 305 305 306 306 307 307 307 308 308 309 310 311 316 319 315 316 318 315 313 312 312 313 315 316 317 316 316 317 316 316 317 317 317 316 316 316 316 316 316 316 316 316 316 315 315 315 315 314 313 313 313 313 314 313 314 315 315 314 314 314 315 316 316 317 316 315 316 314 315 316 319 321 322
312 311 310 310 310 310 310 311 310 309 309 308 307 306 305 305 306 306 307 307 307 308 308 308 310 311 311 315 316 313 318 318 315 313 313 312 313 315 316 316 315 316 317 317 317 317 317 318 317 317 317 316 316 316 316 317 316 316 315 316 316 316 315 314 314 314 314 314 314 314 316 316 314 314 316 317 317 316 316 316 316 315 315 315 315 317 320 321
313 311 311 310 309 309 309 310 310 308 308 308 307 306 305 306 306 306 307 307 308 309 309 310 311 312 314 315 312 314 319 318 315 313 312 312 313 315 316 315 315 317 317 317 317 317 317 318 317 317 318 317 316 316 315 315 315 316 316 316 316 316 316 315 315 315 314 315 314 315 316 316 315 314 317 318 315 315 316 316 317 316 316 316 316 316 319 321
312 311 311 310 309 308 309 309 308 306 307 307 306 306 306 306 306 306 307 308 308 309 310 311 312 313 316 315 313 318 317 316 315 313 312 313 315 316 316 315 315 316 317 318 317 315 315 316 317 316 316 316 316 316 315 314 315 316 316 317 317 317 317 316 316 315 315 315 314 315 315 316 317 315 317 318 315 316 316 317 317 317 316 317 317 317 318 320
312 311 311 310 309 308 308 309 307 306 307 308 307 306 306 306 306 307 308 308 309 310 311 312 312 313 315 314 316 318 316 314 314 312 313 314 315 316 315 316 316 316 317 317 315 314 313 315 317 316 316 317 317 315 315 315 316 316 316 317 318 317 317 317 317 315 315 315 314 315 313 315 318 318 318 318 316 316 316 316 317 317 317 317 318 318 318 319
312 311 311 310 309 308 308 309 309 308 308 308 307 306 305 306 306 307 309 310 311 311 312 312 312 313 314 314 316 318 316 313 313 313 313 314 316 316 315 315 315 315 315 314 314 313 314 316 317 316 316 316 315 314 316 316 316 318 317 316 317 315 315 318 316 315 316 314 314 315 313 314 318 319 318 317 316 316 316 317 317 317 318 317 318 318 317 318
312 312 310 309 309 308 309 310 310 310 309 308 308 307 306 306 306 308 309 310 312 312 312 313 313 314 313 313 315 318 315 313 314 315 313 315 317 316 315 315 314 315 314 314 313 314 315 317 317 316 315 314 316 316 317 317 316 318 314 313 318 314 314 319 316 315 317 314 314 316 313 315 318 318 316 315 315 315 316 317 318 318 318 318 318 318 317 317
312 311 309 310 309 308 309 310 310 311 310 309 308 307 306 307 307 308 310 311 312 312 314 316 315 314 312 314 315 316 316 317 316 314 313 316 318 317 316 315 315 315 315 315 314 315 317 316 316 317 315 314 316 317 317 315 315 317 313 312 317 314 313 317 315 315 316 315 315 315 314 315 317 318 316 314 315 316 316 317 318 318 318 318 317 317 317 317
312 310 309 310 309 308 309 311 311 311 311 310 310 310 309 309 309 311 312 313 314 314 314 316 314 312 311 313 314 315 317 319 317 314 313 315 317 316 316 316 317 316 316 316 316 317 317 316 315 317 316 315 317 317 315 312 311 315 315 312 316 315 312 313 315 315 315 315 316 316 316 316 316 317 317 316 316 316 317 317 317 317 318 318 318 317 317 317
311 310 309 310 310 309 309 311 311 310 311 311 311 312 312 312 312 313 314 313 314 312 311 312 311 311 310 311 314 316 318 318 316 315 314 314 315 315 316 317 317 316 316 316 316 317 317 316 316 318 317 315 317 316 313 311 311 313 315 312 313 314 312 312 314 315 315 315 316 316 316 316 316 317 317 317 317 317 317 317 317 317 317 317 318 317 317 317
311 311 309 309 310 309 310 310 310 310 311 312 313 314 314 314 314 315 316 314 312 309 309 311 310 311 311 312 316 317 317 316 315 315 315 314 314 315 316 317 317 317 316 316 316 317 317 317 316 317 316 315 316 316 314 314 313 314 315 313 312 313 312 314 316 315 315 315 316 316 316 316 316 317 317 317 317 318 318 318 317 317 317 318 318 318 318 318
311 311 310 309 310 310 310 310 310 311 312 313 316 315 314 313 312 313 314 313 311 311 312 313 311 312 313 315 317 316 315 315 315 316 315 314 315 316 316 317 317 317 315 317 318 316 317 318 316 316 316 316 316 316 315 316 314 314 315 314 313 313 312 314 318 315 315 315 315 316 316 316 317 317 317 317 317 318 318 318 318 318 318 318 318 318 319 318
311 311 311 310 310 310 310 310 311 312 312 315 317 318 313 311 311 312 312 311 313 314 313 313 313 314 315 316 316 316 316 316 316 316 315 314 316 316 316 316 317 316 316 318 318 316 316 316 316 317 316 317 317 316 315 314 314 314 314 314 314 314 314 315 318 316 315 315 315 316 317 317 317 317 317 318 318 318 318 318 318 318 319 319 319 319 319 319
311 311 312 311 310 310 310 310 311 311 312 315 317 318 312 312 313 313 312 309 312 315 313 313 313 313 315 316 316 316 316 316 316 316 315 314 316 316 315 316 315 316 317 317 316 315 315 315 316 317 316 316 316 316 315 314 316 315 315 316 314 316 316 315 318 317 315 315 315 316 317 317 318 318 318 318 318 318 318 318 319 319 319 319 319 320 320 320
312 312 312 311 311 311 310 311 311 311 313 316 317 317 313 312 311 311 313 311 313 314 313 312 313 313 314 315 316 315 316 315 316 316 315 314 316 316 316 315 314 316 317 315 315 314 314 315 316 316 315 315 315 315 315 315 316 316 316 315 315 318 316 312 316 318 316 316 316 317 318 318 319 318 318 318 318 318 319 319 319 320 320 320 320 320 321 320
312 312 312 311 311 311 311 311 311 312 314 316 318 316 312 312 310 311 315 312 311 314 313 313 313 313 314 314 315 315 315 315 316 317 316 315 315 315 316 315 315 316 316 315 314 314 315 316 315 315 315 315 315 315 316 315 315 317 318 316 315 318 316 313 316 318 316 317 317 319 318 317 319 321 320 320 320 320 320 320 320 321 321 321 322 321 321 321
313 312 312 311 311 312 311 311 313 314 315 316 316 314 311 312 311 312 315 312 310 313 313 313 313 313 314 314 315 315 314 313 315 317 316 316 315 314 315 315 315 316 315 315 314 314 316 315 314 316 316 316 317 316 317 317 314 315 319 319 316 316 316 316 320 319 315 315 318 320 315 314 318 321 321 321 321 320 320 321 320 321 321 321 321 321 321 321
314 313 312 312 312 311 311 313 315 314 315 316 315 311 310 313 312 311 313 311 310 312 311 311 313 312 312 314 315 315 312 312 315 317 317 316 315 314 314 315 315 315 315 315 315 315 316 314 316 318 317 319 319 316 318 319 313 313 319 320 318 318 319 319 321 319 313 314 319 320 317 315 316 317 319 320 319 319 319 320 320 321 321 321 322 321 321 320
314 313 312 312 312 311 312 314 315 314 314 315 314 311 311 313 312 312 311 311 312 313 313 310 311 312 313 315 315 312 310 312 314 315 316 315 315 314 314 314 314 314 316 315 314 316 316 315 317 319 319 320 319 317 320 319 314 316 320 320 319 320 320 321 321 319 317 319 321 320 319 318 316 316 318 319 318 318 319 319 320 321 320 321 322 322 322 321
315 314 312 312 311 311 313 315 314 314 313 313 312 310 312 313 312 311 309 311 314 314 314 311 309 311 314 315 314 311 311 312 315 315 315 314 314 314 314 315 314 314 316 315 314 315 317 318 319 319 319 319 319 319 321 319 316 320 319 319 320 320 321 322 321 319 320 321 319 320 321 316 314 316 319 319 317 318 319 318 319 319 320 323 322 322 322 321
316 315 313 312 311 311 313 314 314 315 313 311 310 311 313 312 312 311 309 312 315 313 312 312 311 312 314 313 312 312 311 312 315 315 313 313 314 314 313 314 315 315 315 314 316 317 316 315 317 318 319 319 318 316 319 320 319 319 318 319 320 321 320 321 321 320 321 321 319 321 320 312 311 315 318 318 317 317 319 318 319 318 320 324 324 324 322 320
315 316 314 313 311 311 312 313 314 315 312 310 311 312 313 313 312 310 310 313 315 315 312 311 312 313 313 312 311 312 312 313 315 314 314 314 314 313 313 314 315 316 317 316 318 317 314 312 314 317 317 317 315 313 316 319 318 318 319 321 321 321 321 320 320 319 318 318 319 321 319 312 311 315 318 318 318 318 318 317 318 319 319 322 324 324 321 318
316 316 315 313 313 312 312 313 313 313 312 310 311 313 313 313 310 310 312 312 313 316 312 312 314 313 312 312 313 312 312 315 315 314 315 315 315 314 313 314 315 316 317 317 318 318 316 315 315 316 314 314 316 315 315 316 317 320 321 320 319 320 321 319 320 321 319 317 318 320 320 316 314 316 318 319 319 318 318 318 317 318 320 320 324 325 319 315
318 316 315 314 314 312 313 313 312 312 311 311 313 314 313 311 311 312 313 310 311 316 315 315 316 314 313 314 314 313 313 315 315 315 316 315 316 315 314 314 315 315 315 316 318 318 318 318 317 316 313 314 318 318 316 316 317 320 320 319 318 316 317 318 321 323 320 317 319 319 320 319 317 317 318 319 319 318 319 320 319 319 321 320 324 326 318 313
319 317 315 315 314 313 313 313 312 311 311 312 314 315 313 311 311 312 311 309 313 317 317 317 316 314 314 314 315 314 313 315 316 316 317 317 317 316 315 315 315 316 315 315 318 318 318 319 319 317 314 314 318 318 317 317 317 318 319 319 317 313 314 317 318 319 318 317 318 317 319 319 316 315 319 319 318 319 319 320 321 322 322 321 324 325 317 313
319 318 317 316 314 314 313 313 312 311 312 314 314 313 313 313 312 311 311 312 316 317 316 317 316 315 315 316 316 315 314 316 316 317 318 318 318 318 317 316 316 318 317 315 318 318 317 318 319 318 317 316 318 319 318 318 318 318 319 319 317 313 313 315 315 315 316 316 317 317 318 317 314 314 319 320 318 319 319 319 321 321 322 323 324 325 319 315
319 319 318 316 315 315 314 313 312 311 313 315 313 312 313 313 313 312 312 316 318 317 316 316 316 316 316 316 317 315 314 316 317 317 318 318 318 319 318 317 317 318 317 315 317 318 316 317 319 319 317 317 319 320 320 319 318 318 320 320 320 317 314 313 315 316 316 316 317 317 316 315 315 316 319 319 320 320 319 320 320 319 321 322 322 324 322 318
318 317 317 316 315 315 314 313 313 311 314 316 313 312 312 312 313 313 313 317 318 317 316 316 316 317 317 316 316 315 315 317 318 317 318 318 318 319 318 317 317 317 316 314 316 318 316 317 319 318 316 316 316 318 319 318 317 318 320 321 320 320 317 315 317 317 315 316 316 315 316 315 315 317 318 319 319 319 319 319 319 319 320 321 321 324 325 323
317 316 316 315 315 316 315 314 313 312 315 318 315 313 312 312 312 313 315 316 317 317 317 317 317 317 318 317 316 316 316 317 317 317 317 318 318 318 319 319 317 317 316 314 316 318 316 316 316 316 317 315 312 315 317 316 317 318 319 319 319 319 318 316 317 317 317 318 318 316 317 315 314 317 319 319 318 318 318 318 318 319 319 320 321 322 323 323
316 315 316 315 315 315 314 313 313 312 314 318 317 313 312 312 311 314 317 317 317 317 317 317 318 317 318 317 317 316 315 316 317 317 317 317 316 317 319 318 318 317 316 315 315 317 316 316 315 314 316 315 312 315 317 316 316 318 318 319 318 318 318 317 317 318 317 319 320 318 316 316 316 316 318 319 319 319 318 318 319 319 319 320 320 321 321 321
315 315 316 316 315 315 314 313 313 312 312 316 317 314 313 312 312 314 317 317 316 316 315 316 318 318 317 317 317 316 315 316 317 317 317 317 316 317 318 317 318 317 316 315 314 315 315 314 316 313 314 316 315 316 318 318 316 316 317 318 318 319 319 318 318 317 316 318 319 318 317 316 317 317 317 318 319 318 318 319 320 319 320 320 320 322 323 322
315 315 316 315 314 315 314 312 313 312 312 315 316 315 314 313 314 314 314 316 316 315 314 314 316 318 318 318 317 317 315 316 318 317 316 316 316 317 317 316 318 318 316 315 315 315 314 312 315 315 313 316 317 317 318 319 318 316 316 317 318 318 318 319 319 317 317 318 318 319 319 316 316 318 319 319 319 319 319 319 321 322 321 320 322 323 322 320
314 316 316 315 314 315 313 313 313 311 312 314 316 316 316 315 316 314 314 317 317 315 315 315 315 316 318 319 318 317 316 316 318 317 316 316 316 317 317 316 317 318 316 316 315 315 314 312 314 316 315 317 318 318 317 318 319 318 317 317 318 318 318 319 321 319 319 319 317 319 320 317 317 319 318 318 318 319 319 319 321 323 321 321 324 323 320 318
314 316 316 315 315 314 313 314 312 308 310 312 314 315 315 315 316 315 315 316 317 316 316 316 315 315 318 319 318 318 318 317 318 318 317 317 316 317 317 316 317 317 316 317 317 315 315 315 315 317 318 318 318 316 314 314 317 319 318 318 318 318 318 318 319 319 320 320 319 319 321 320 320 322 320 320 321 321 321 322 321 322 320 321 324 321 317 317
314 316 315 314 314 313 314 315 311 307 309 311 311 313 313 314 315 316 315 315 315 316 316 315 315 315 316 318 318 319 319 318 319 318 317 318 317 317 317 317 318 318 316 317 318 316 316 316 315 316 318 318 316 315 313 313 315 318 319 319 319 319 319 318 318 318 320 321 320 320 321 321 323 325 323 323 325 323 322 322 322 321 320 321 324 320 317 316
315 315 314 313 313 313 315 316 312 309 310 311 311 312 312 313 314 315 315 315 314 316 316 315 316 315 316 318 318 319 319 318 319 320 318 319 319 318 317 317 318 317 316 318 319 317 317 317 316 316 318 319 319 318 316 315 315 317 318 319 320 320 320 320 319 318 320 322 322 321 321 320 320 321 318 318 320 318 317 319 320 321 322 323 325 321 317 316
314 314 313 313 313 313 316 316 312 310 310 311 311 311 312 313 313 314 315 315 315 315 315 316 317 316 317 318 318 319 318 315 317 320 319 320 319 317 317 319 318 315 318 323 321 316 317 318 317 317 318 320 322 321 320 318 316 317 318 319 320 320 320 321 320 320 321 322 322 322 320 318 319 319 316 316 317 316 317 317 316 318 322 324 324 322 319 317
313 313 313 313 313 314 316 315 312 310 310 310 312 312 312 313 313 313 314 315 315 315 315 316 316 316 317 318 318 319 319 316 318 320 320 320 318 316 317 319 317 316 321 325 321 317 320 320 317 317 318 317 319 320 321 319 318 318 318 319 320 320 320 321 321 321 321 321 321 321 320 319 319 318 318 316 316 317 318 317 315 317 321 322 322 321 319 317
311 313 314 314 314 314 316 315 313 311 310 310 312 312 312 313 314 314 314 314 315 315 315 316 316 316 317 317 317 318 318 319 320 320 319 319 318 316 315 316 318 319 320 321 319 319 321 321 318 319 319 317 317 318 320 320 319 319 319 319 319 320 321 322 322 321 320 321 321 319 320 321 320 318 318 318 317 317 318 318 317 318 320 321 322 322 318 316
310 312 312 313 314 314 315 316 314 313 311 311 311 312 313 313 314 315 314 314 315 316 316 317 317 316 316 316 317 318 318 320 320 319 318 319 318 317 314 315 316 316 317 320 321 321 321 319 319 320 319 318 318 318 320 320 320 319 320 320 320 320 321 322 322 321 321 321 321 319 320 322 320 318 319 319 318 318 318 318 318 318 319 320 321 322 320 318
308 309 309 310 312 313 314 315 315 314 312 311 311 311 312 313 313 315 315 315 316 316 316 316 316 315 315 315 316 317 318 319 319 319 318 318 319 318 317 316 314 313 315 319 320 321 320 318 318 319 319 319 318 319 319 320 320 320 320 320 320 321 321 321 321 320 321 321 320 320 321 321 319 319 318 318 319 318 318 318 319 318 319 319 320 321 320 320
308 308 309 309 311 311 312 314 316 315 313 312 311 310 311 312 313 314 315 315 315 315 316 315 315 315 315 315 316 317 317 317 318 318 317 318 318 318 317 317 317 314 315 317 319 318 317 318 319 319 319 320 319 318 319 320 321 321 320 319 319 321 322 322 321 321 321 321 321 321 322 321 319 319 318 318 318 318 318 319 319 319 319 318 319 319 320 320
306 306 307 309 311 311 311 313 315 315 314 312 311 311 311 312 313 313 314 315 315 315 315 315 316 316 316 316 316 317 316 316 317 319 319 318 318 318 318 319 320 317 315 316 319 318 316 318 319 319 319 320 319 319 320 320 321 322 321 319 319 320 321 322 322 321 321 322 322 322 322 321 319 319 319 318 318 318 318 319 319 319 319 319 318 318 319 319
305 304 305 308 310 311 311 312 313 314 314 312 311 312 311 311 312 313 314 315 314 315 315 315 316 317 318 317 316 316 317 317 318 320 321 320 319 320 320 320 320 319 317 316 318 318 317 317 317 318 320 321 320 320 320 320 321 322 321 319 319 319 319 320 321 321 321 321 321 322 321 320 319 318 319 318 318 318 318 318 319 319 319 319 319 318 318 318
Wind_Speed
9 9 9 8 8 7 7 9 9 8 8 8 8 8 8 9 9 9 10 9 8 7 6 5 4 3 3 3 3 2 3 4 4 5 4 2 4 4 3 2 0 1 2 3 5 4 4 5 5 5 4 3 0 1 1 1 1 3 4 5 4 3 2 2 4 2 2 5 8 9 10 9 7 7 4 3 5 5 4 6 5 3 2 5 8 8 10 12
10 9 9 8 8 6 7 8 9 9 9 9 8 9 8 9 9 9 9 9 8 7 6 5 4 3 3 3 2 2 4 4 5 3 2 4 4 3 3 2 1 1 2 2 4 6 5 4 6 6 5 3 1 1 2 0 1 3 3 5 3 1 3 3 2 4 3 2 9 10 9 7 4 7 6 4 8 8 7 8 8 7 6 8 9 9 11 12
11 10 9 9 8 6 7 8 9 10 9 9 9 9 9 8 9 9 9 9 8 7 6 5 4 3 3 3 2 3 4 4 6 4 4 5 4 3 2 1 1 1 2 1 3 5 4 2 6 7 4 3 1 2 4 1 1 1 2 5 1 4 5 5 4 6 5 3 7 10 7 6 3 4 6 6 7 8 9 8 8 9 10 11 11 11 13 13
11 10 9 9 8 7 7 8 9 10 10 10 9 9 9 9 9 9 10 9 8 8 6 5 4 3 3 3 3 4 4 5 4 4 5 6 4 2 2 1 1 1 1 1 2 3 4 3 5 6 4 3 2 3 4 1 1 1 1 3 3 3 3 5 5 7 6 4 4 8 6 7 4 3 5 6 7 7 9 9 9 9 9 11 13 13 14 14
11 11 10 8 8 7 7 8 9 9 9 10 9 10 9 9 9 10 10 10 9 8 6 6 5 4 3 3 3 3 2 4 3 4 6 6 3 2 2 1 1 1 1 1 1 2 4 5 5 5 4 4 5 4 3 3 1 1 1 3 5 2 2 5 4 5 4 3 2 7 7 6 5 3 7 8 9 4 1 3 4 3 1 7 14 13 14 14
12 11 10 9 8 7 7 8 8 8 8 9 9 10 10 9 10 10 10 10 9 8 7 6 5 4 3 3 3 2 3 2 2 3 7 6 3 3 2 2 2 1 1 1 2 3 4 6 6 5 4 4 5 3 3 3 1 1 2 3 4 4 3 4 4 3 2 0 3 5 4 4 4 7 7 10 13 4 5 6 5 6 6 6 12 13 13 14
12 11 11 9 9 8 7 7 8 8 8 9 10 10 10 10 11 11 11 10 10 9 8 7 6 5 4 2 1 3 5 0 2 4 7 5 3 3 2 2 2 2 1 3 4 5 5 7 6 4 4 3 3 3 4 3 2 2 2 5 3 4 4 4 4 3 1 0 2 2 1 3 7 6 3 8 14 10 2 6 5 6 5 4 9 11 12 13
15 12 12 10 9 8 7 7 7 8 9 9 10 10 11 11 11 11 11 11 10 9 8 7 6 5 4 3 2 4 5 2 3 6 7 4 2 2 2 2 2 2 1 2 2 3 4 6 5 4 4 2 2 4 3 3 2 1 4 5 2 3 4 5 4 3 2 0 1 0 3 5 5 2 3 9 13 13 6 5 4 4 4 4 8 10 10 11
17 14 13 11 10 10 9 7 8 9 9 9 10 11 11 11 11 11 11 10 10 9 8 7 6 5 5 4 4 5 3 4 6 8 6 4 2 3 3 2 2 1 1 1 3 3 3 4 3 2 1 4 2 4 1 2 1 2 5 5 4 4 4 4 3 4 2 1 2 4 6 4 1 4 7 13 12 9 5 5 4 4 5 6 7 9 10 10
17 15 14 11 10 12 12 8 8 10 10 9 10 10 11 11 11 11 10 10 10 9 9 8 6 5 5 4 6 4 3 5 8 8 6 4 3 3 3 2 2 1 1 2 2 2 2 1 2 0 1 4 2 2 1 2 1 3 6 5 5 5 4 2 3 4 2 2 3 5 5 3 1 2 7 5 2 3 4 6 6 5 8 8 8 9 9 10
17 16 14 13 11 12 11 8 9 12 11 9 9 9 10 10 10 11 10 10 10 9 9 8 7 6 4 6 7 3 3 5 9 9 6 4 2 2 2 3 4 2 1 3 4 4 3 3 3 1 0 4 4 4 3 2 1 3 5 5 5 4 4 3 3 4 3 2 2 4 5 4 2 5 12 4 4 3 5 7 7 7 8 8 8 8 7 9
18 16 14 14 12 11 10 8 9 11 9 8 8 8 9 10 10 11 10 11 10 10 10 8 9 5 3 6 4 1 4 6 9 9 7 4 4 4 3 3 4 2 2 3 5 5 4 4 3 1 2 2 5 5 4 1 1 3 3 3 6 5 4 6 4 3 3 1 2 2 6 9 9 13 16 6 6 4 5 7 7 7 7 7 8 7 6 8
18 16 14 13 12 11 11 9 8 9 8 8 8 8 9 9 10 11 11 11 11 11 10 9 9 5 4 4 1 4 5 7 9 9 8 7 6 6 6 5 6 4 2 5 5 4 5 4 4 2 3 1 2 3 3 3 0 4 3 3 4 6 6 7 5 3 4 2 3 2 6 6 9 15 11 6 6 4 5 8 7 7 7 7 7 6 7 9
18 17 15 13 12 11 11 9 8 8 8 8 8 7 8 8 10 11 11 11 11 10 10 8 8 5 4 1 3 3 6 8 8 7 9 9 7 8 8 8 8 7 7 10 8 6 7 4 1 5 3 3 4 3 4 4 2 3 2 2 4 5 3 7 5 5 6 2 3 4 6 6 5 7 5 6 5 5 7 9 8 8 7 7 7 7 8 9
18 17 15 14 13 11 11 10 8 7 7 8 7 7 7 9 10 11 11 11 10 9 7 7 6 4 4 2 2 3 6 7 6 7 11 10 6 7 7 8 10 9 10 12 10 9 7 3 1 5 3 2 3 5 4 4 3 3 2 3 4 3 3 7 5 5 4 2 5 6 5 7 4 4 7 3 3 4 8 8 7 8 8 8 7 8 8 9
17 16 15 14 12 12 11 9 9 7 6 7 7 7 8 9 10 11 11 9 8 8 5 4 6 4 4 3 4 4 4 4 6 8 12 10 5 6 9 8 9 8 7 9 8 7 5 3 1 1 2 2 4 4 3 3 4 4 4 3 3 4 3 4 3 2 2 2 7 9 7 6 1 5 6 3 4 5 6 7 8 9 8 9 8 8 8 8
16 15 15 14 13 12 11 9 9 7 6 7 7 7 8 9 10 9 9 8 6 6 3 1 3 4 3 3 3 4 5 5 7 7 9 8 5 8 9 6 6 6 6 5 4 2 2 2 1 1 2 3 4 4 4 4 4 5 4 3 2 4 4 2 2 3 3 3 6 9 10 12 8 4 4 6 7 7 8 10 11 11 10 9 8 8 9 9
17 14 14 15 13 12 11 10 9 8 7 8 8 9 10 9 9 8 7 8 7 5 1 1 2 3 3 4 3 4 6 6 7 7 7 7 7 7 3 3 6 6 7 4 2 2 0 1 2 2 3 4 4 5 5 3 2 3 4 4 3 4 6 5 1 4 5 5 7 9 11 15 15 12 10 8 9 10 12 13 12 12 12 10 9 9 9 10
16 13 13 16 14 12 11 10 9 8 8 9 11 14 13 10 8 5 4 5 5 3 1 4 7 3 2 6 6 7 8 9 9 6 5 6 7 6 2 4 6 4 5 4 3 2 1 3 3 3 5 6 7 8 5 1 3 1 1 2 3 3 5 6 1 4 3 4 8 11 12 15 16 14 13 12 11 11 13 13 12 11 11 11 11 10 10 11
15 13 11 14 15 12 11 10 9 8 9 10 13 12 9 7 6 4 5 5 4 0 3 2 6 2 4 7 8 10 10 8 5 4 6 8 7 6 5 5 4 3 4 3 3 2 1 3 5 5 6 6 9 7 1 3 3 2 1 3 4 4 5 5 3 6 2 4 9 12 13 15 16 15 14 13 12 13 14 14 13 12 11 11 13 13 12 12
15 14 11 11 14 13 12 11 9 10 11 10 9 5 4 8 6 5 7 5 4 1 4 3 2 3 4 6 9 9 7 3 2 4 7 9 6 6 6 5 5 5 3 2 4 2 2 5 7 6 1 2 2 3 2 1 0 2 3 3 4 4 6 7 1 5 3 3 7 11 13 14 14 15 15 14 14 15 16 16 15 14 14 12 13 14 13 11
14 15 12 10 12 13 12 11 10 11 11 8 9 6 2 3 3 4 6 5 4 2 1 1 1 3 5 5 7 5 2 4 5 6 8 9 7 6 6 7 8 5 5 5 3 3 4 7 6 2 4 6 4 2 2 3 2 3 3 3 4 3 5 7 1 4 3 3 6 10 12 12 13 16 17 17 16 15 16 16 15 15 15 14 14 13 12 11
15 15 13 11 10 11 11 10 9 10 9 9 10 6 3 1 4 6 4 3 4 3 3 4 3 5 5 3 5 5 4 5 6 8 9 9 7 5 6 9 9 5 7 8 6 5 5 5 2 4 4 3 3 3 3 3 3 4 3 3 4 0 2 4 1 1 3 5 6 10 11 11 13 16 18 19 18 15 15 16 15 15 16 16 14 11 11 12
15 15 14 12 11 10 10 9 8 8 10 10 11 9 3 3 6 5 3 2 2 3 2 2 2 4 5 3 6 8 4 2 3 9 11 10 7 4 5 8 9 6 6 9 10 9 4 2 3 3 3 4 4 5 6 4 4 5 6 6 5 2 4 5 3 6 8 5 2 8 11 9 8 12 12 11 12 13 13 14 14 15 15 14 13 12 12 12
16 15 15 14 12 11 11 9 7 8 8 8 11 12 7 5 5 3 2 2 3 2 1 2 1 4 6 5 6 6 1 1 1 6 12 10 5 5 4 3 5 8 9 10 10 10 4 4 3 4 4 5 6 6 7 6 4 5 7 8 7 6 6 7 5 7 7 4 1 4 8 4 4 7 7 5 7 9 10 11 13 14 13 11 11 11 11 11
17 16 15 15 13 14 12 7 7 9 7 5 11 13 9 6 5 2 2 3 5 4 4 5 5 7 8 7 7 4 1 4 2 5 10 6 1 2 3 3 1 5 7 7 5 5 2 3 3 5 6 6 6 5 7 7 5 4 3 3 6 6 5 6 5 3 5 5 1 2 5 7 3 7 10 7 7 9 9 11 13 12 10 9 9 9 9 10
19 18 17 16 16 18 10 3 8 11 5 6 12 14 10 8 5 2 2 3 5 5 5 3 2 6 9 8 10 7 2 4 6 3 5 3 1 0 3 6 4 2 3 4 3 2 5 6 5 6 6 6 6 5 7 10 6 2 1 1 1 3 4 4 4 4 5 7 6 4 4 8 8 7 11 11 10 10 9 10 11 10 9 8 8 7 8 8
21 20 18 16 19 19 7 3 12 11 4 5 12 15 11 8 5 1 3 5 3 5 4 2 2 5 6 6 8 5 1 5 6 3 3 1 1 1 5 8 8 8 7 6 5 1 4 7 8 9 8 6 4 0 4 10 6 1 2 1 2 1 2 2 3 5 4 6 7 5 7 6 8 2 8 11 10 8 9 9 9 10 7 5 5 6 6 5
22 23 22 18 19 17 6 2 9 10 7 6 13 17 12 7 4 1 3 5 2 4 2 3 5 4 7 7 6 4 3 2 0 3 4 1 0 1 4 5 6 9 9 6 5 2 2 1 3 6 7 4 3 5 2 4 3 3 5 4 4 3 1 1 3 4 3 6 6 7 9 4 9 3 8 8 7 7 7 6 7 8 6 2 3 4 3 2
23 23 23 22 20 19 12 7 10 13 9 8 14 16 10 5 4 5 5 4 3 3 2 3 5 7 12 11 7 6 6 2 3 6 5 3 3 1 2 1 3 4 5 3 2 2 3 2 1 2 1 1 5 6 5 3 3 7 7 4 3 3 2 2 3 1 3 7 5 8 13 7 7 2 8 5 5 6 5 5 5 6 6 4 2 2 3 3
26 24 25 27 23 19 14 7 13 17 11 9 14 13 7 3 3 7 6 0 1 3 4 4 7 11 16 15 9 7 7 4 6 10 7 4 5 4 4 3 1 2 3 4 3 3 3 2 2 1 1 3 6 5 4 3 3 5 4 3 3 3 3 3 3 2 5 7 2 3 8 10 9 3 4 3 4 6 5 5 5 6 6 6 3 3 5 4
28 27 27 29 24 19 14 6 11 18 11 10 14 8 5 5 3 7 5 3 1 6 8 8 9 12 16 15 9 9 9 6 8 10 8 8 7 7 9 8 7 5 5 7 5 3 3 4 4 4 0 4 5 5 4 2 3 4 4 5 4 4 3 4 5 4 6 6 2 3 2 7 11 8 6 6 4 6 6 4 5 6 6 8 5 3 5 4
29 29 30 32 28 22 17 8 7 14 14 14 11 3 4 7 5 8 9 4 2 3 6 8 10 13 15 13 9 10 9 6 9 9 8 9 8 9 11 11 11 7 4 6 7 4 3 2 5 5 2 5 8 6 4 4 6 7 7 6 5 5 5 7 6 5 6 3 3 4 2 5 8 6 11 16 13 10 8 6 5 5 6 10 7 3 6 4
29 31 32 34 32 25 21 16 10 14 19 15 7 3 6 8 6 11 13 7 3 3 5 8 11 13 13 8 6 11 7 4 10 9 7 9 7 8 10 11 12 7 1 5 6 6 7 4 7 10 5 8 12 7 4 5 7 9 7 5 6 6 6 7 5 5 6 3 1 4 3 4 3 1 3 8 9 9 10 9 7 6 8 10 7 3 5 5
32 35 35 34 34 30 27 23 15 18 20 11 6 7 8 8 7 11 12 6 5 4 6 9 11 11 9 2 2 7 3 2 9 8 6 9 8 8 10 10 13 10 5 6 4 5 8 5 6 7 3 11 13 4 2 5 5 6 4 5 6 5 6 5 2 1 2 5 4 5 4 5 4 3 2 3 5 9 10 9 8 9 11 11 8 4 3 5
32 34 32 30 33 34 31 25 20 22 16 6 7 8 8 9 8 9 7 6 6 8 11 10 8 8 8 3 1 5 0 1 8 7 5 8 8 9 10 9 13 13 10 8 3 3 5 2 4 3 2 6 5 1 2 2 2 5 5 5 2 2 3 5 2 3 2 6 6 5 7 8 7 8 8 11 10 10 9 8 9 12 13 10 8 6 4 4
27 24 19 21 30 35 33 27 24 23 12 4 8 9 7 10 10 6 5 8 11 13 11 8 6 7 8 5 4 7 4 3 7 7 5 6 6 9 12 9 11 16 15 10 3 2 4 1 1 1 1 1 3 3 1 2 2 3 4 4 3 4 2 4 4 1 3 8 6 4 10 10 6 6 6 12 12 11 11 11 12 14 11 9 8 7 7 5
21 14 9 16 29 34 31 29 27 19 6 3 11 12 8 11 11 7 7 10 13 13 9 7 7 8 9 7 7 10 9 6 8 8 6 6 5 9 13 9 8 16 16 8 2 1 3 3 0 1 0 2 2 1 3 1 0 0 1 1 2 2 4 5 5 5 5 8 7 6 11 10 8 7 4 10 12 11 13 13 12 12 9 8 8 7 5 3
15 7 5 15 27 31 31 29 23 12 4 6 12 11 9 12 11 7 9 12 12 12 11 9 8 7 9 8 7 10 11 9 9 8 6 6 5 8 13 9 7 13 15 10 4 2 3 5 3 0 1 3 4 5 6 5 3 1 3 2 2 2 3 4 5 4 5 6 7 8 9 8 7 7 8 9 12 12 13 11 9 9 8 7 5 3 2 1
9 4 4 13 24 31 31 24 14 8 6 9 11 7 7 10 7 7 10 11 9 8 9 12 11 9 10 10 8 9 9 8 9 7 6 8 7 6 11 11 8 10 14 14 8 3 3 4 3 1 0 3 5 7 9 9 8 6 6 6 5 3 1 2 4 4 4 5 6 7 10 8 2 2 4 5 8 10 9 6 6 7 6 4 3 2 1 1
4 3 4 13 27 33 28 14 6 6 6 8 10 6 4 4 5 10 9 5 5 4 2 9 13 10 10 11 11 10 8 7 9 8 6 9 9 6 8 12 11 10 12 12 9 7 5 4 5 4 3 7 5 3 5 6 6 7 8 9 10 8 5 3 5 5 3 4 6 6 10 10 1 4 3 4 5 6 4 3 4 5 5 4 3 3 2 1
2 4 3 16 33 34 21 6 3 5 3 7 9 4 1 1 2 8 8 4 5 3 0 5 11 11 10 11 11 11 9 8 10 9 7 10 12 8 8 12 13 14 12 8 10 10 5 3 6 6 5 5 2 3 2 1 1 3 5 6 8 7 7 8 7 5 4 4 5 4 9 11 1 6 2 3 3 1 1 3 4 6 5 4 3 2 2 2
4 4 4 18 37 32 14 6 5 4 4 5 5 4 4 2 0 3 6 7 7 5 4 5 8 11 10 10 11 12 11 8 10 13 10 10 12 7 8 12 13 14 11 6 7 7 4 3 6 6 4 3 2 3 2 1 1 4 3 3 5 8 10 8 3 2 3 5 6 4 9 11 0 6 2 3 3 1 2 4 5 6 4 4 4 3 2 3
3 2 2 17 37 29 11 6 7 5 6 5 7 10 8 4 3 4 5 9 8 6 8 8 8 10 8 7 9 12 12 9 10 13 11 9 7 2 7 13 13 13 9 5 6 7 5 5 6 6 5 5 5 4 3 3 3 5 6 6 8 11 11 6 0 2 4 9 11 8 9 11 1 5 2 3 4 4 4 4 5 5 4 2 3 3 3 4
3 2 1 11 25 20 8 5 6 5 6 7 9 13 12 7 5 6 5 5 4 4 7 6 5 6 4 5 7 9 13 12 10 11 10 8 3 3 4 11 13 12 7 3 5 7 6 5 7 8 9 9 8 5 4 6 5 4 7 11 12 14 14 9 3 5 9 14 13 9 11 14 6 4 4 3 4 6 6 5 3 3 3 2 1 3 4 4
3 4 2 4 8 9 6 5 6 5 5 7 7 9 14 12 8 7 6 5 2 2 2 1 3 5 6 9 9 8 13 14 7 5 8 8 4 2 2 8 12 12 5 7 6 6 2 2 7 10 11 12 9 3 5 9 8 8 11 14 15 16 16 11 6 9 13 12 11 11 15 20 19 11 5 3 4 6 6 6 4 4 4 3 4 4 4 4
3 4 5 4 3 6 6 6 8 7 7 9 6 6 14 16 10 7 8 6 4 4 2 2 2 6 7 11 12 9 12 12 5 4 8 7 3 2 1 2 6 5 6 5 4 4 2 3 9 12 14 15 13 8 7 12 11 13 13 14 16 16 15 13 12 16 15 10 11 15 16 18 23 22 15 9 7 7 6 7 9 8 6 5 5 5 4 6
3 3 3 2 1 4 7 7 11 12 12 11 6 5 12 16 12 9 8 7 4 5 4 2 4 8 8 10 10 8 10 10 5 5 7 5 4 3 2 1 1 3 5 2 1 3 3 5 8 10 13 16 16 13 8 10 10 12 13 15 17 17 17 17 18 21 17 11 13 17 17 17 20 24 19 13 11 12 11 10 10 9 7 6 6 4 5 7
2 3 1 1 1 2 4 7 11 13 14 13 7 6 11 16 15 11 7 7 6 6 7 8 10 12 11 10 7 6 8 9 7 7 6 6 4 4 4 2 0 1 2 3 1 1 3 4 8 9 11 14 17 15 12 11 11 11 13 14 16 19 22 22 22 22 20 17 18 21 23 21 21 23 20 14 13 15 15 11 9 8 8 9 9 7 7 8
2 2 1 2 3 2 3 4 8 9 11 12 9 7 9 14 17 13 8 10 10 9 10 13 15 13 13 13 9 7 8 8 9 8 5 6 5 4 4 3 2 1 0 3 2 1 2 4 5 5 6 12 17 17 15 12 11 11 11 13 16 20 22 22 19 17 16 19 21 23 24 22 20 19 18 18 16 15 16 15 11 11 12 12 12 12 11 11
3 2 1 2 4 4 3 4 6 7 7 9 9 8 9 14 17 12 7 8 10 9 12 17 16 10 10 14 13 14 14 11 9 4 1 3 4 3 3 2 4 4 3 2 2 1 2 2 1 2 5 11 15 16 13 10 8 10 13 16 21 21 17 14 13 13 15 16 18 18 17 16 17 15 13 17 18 15 17 18 14 16 17 14 14 16 16 16
7 2 2 1 3 5 5 4 6 7 4 6 9 9 9 12 14 11 6 4 7 9 10 14 13 7 7 13 16 17 15 10 5 1 4 2 1 2 1 2 4 5 6 5 3 3 5 3 2 4 6 9 15 13 8 5 5 8 14 20 21 18 15 13 14 18 19 15 12 13 12 14 18 17 15 18 18 15 17 17 14 16 17 15 14 16 17 18
Wind_Direction
187 185 184 181 182 182 180 179 179 185 191 192 192 191 192 191 187 186 182 183 182 181 187 187 197 199 194 197 199 205 187 181 192 204 209 142 122 140 140 121 120 187 166 166 177 199 204 192 176 185 189 166 227 125 156 358 349 243 218 229 236 205 173 149 171 149 73 124 146 162 175 194 174 167 166 148 223 220 182 202 192 174 171 108 108 121 131 140
197 190 186 185 184 185 186 181 182 190 194 193 194 195 196 194 192 189 185 186 185 187 191 191 206 203 205 201 191 199 168 183 210 185 137 145 143 133 114 98 63 126 151 169 206 216 218 187 172 193 200 173 182 174 186 143 268 243 232 234 240 93 77 52 80 90 35 119 149 160 183 201 181 163 165 202 214 203 217 213 200 212 193 149 138 144 146 153
202 196 191 189 188 189 190 184 186 194 197 196 196 195 196 198 194 191 190 189 187 191 194 200 213 212 220 200 192 191 167 206 212 152 135 157 142 116 105 92 64 114 162 232 252 244 265 215 178 201 203 180 166 190 196 169 273 245 256 240 161 72 80 60 55 81 43 28 150 159 174 193 174 145 162 217 228 209 226 225 204 212 207 182 165 161 160 165
200 198 196 194 194 196 192 187 193 198 197 198 198 196 197 198 196 193 191 190 190 193 196 205 212 220 223 201 206 189 183 227 200 131 156 157 132 114 87 75 85 95 137 217 251 252 270 212 189 212 212 181 145 189 189 103 286 189 248 282 49 58 92 84 71 74 47 6 159 147 159 193 166 143 181 215 235 224 229 233 220 224 222 188 167 165 169 173
201 200 201 199 200 200 200 197 197 198 198 201 199 197 198 198 197 193 192 192 192 193 197 206 212 222 216 211 217 185 216 232 142 120 158 153 124 99 65 70 78 65 116 161 225 225 228 201 192 212 219 179 159 189 161 88 299 187 147 13 36 1 66 95 84 65 44 11 143 147 168 183 142 183 211 218 233 230 240 255 229 248 294 156 159 167 172 180
203 202 204 204 206 205 206 205 202 200 200 204 201 197 198 198 198 195 193 192 192 193 197 203 210 217 211 223 216 196 244 234 95 146 154 144 119 85 57 64 42 63 117 237 235 220 216 204 196 202 206 174 173 180 114 108 272 246 128 79 40 12 53 96 88 66 21 66 154 159 161 147 171 218 214 222 237 240 59 46 44 54 59 129 156 166 175 186
205 206 210 208 210 210 210 209 205 205 205 205 201 197 197 197 198 196 193 192 194 194 195 201 207 213 207 202 181 211 237 164 97 170 150 137 112 77 57 59 33 54 42 259 223 208 208 209 204 203 190 153 162 136 103 146 233 274 122 109 60 34 59 73 77 99 46 40 108 76 103 185 217 227 199 224 241 248 121 84 70 76 88 144 163 172 185 192
210 209 215 214 210 212 215 214 211 213 210 207 202 199 198 197 197 196 194 193 194 193 195 201 201 207 199 193 214 220 217 112 141 169 151 142 101 65 55 38 21 40 350 286 261 234 216 214 205 206 188 121 125 125 124 184 194 280 111 114 98 69 79 78 88 122 117 39 58 139 212 211 229 283 282 242 244 250 228 134 125 120 125 174 187 189 193 196
217 213 219 217 210 211 211 214 219 219 215 211 206 201 199 197 198 197 194 193 193 194 194 198 200 203 193 205 254 230 174 114 163 169 154 150 95 62 50 31 25 22 317 2 316 274 235 223 191 216 137 87 121 128 151 233 123 67 112 123 122 104 93 99 122 131 142 169 144 209 213 195 255 329 274 247 242 237 205 167 176 181 192 203 203 203 200 199
226 228 228 219 213 212 207 210 222 219 217 214 209 205 202 200 199 197 194 191 192 192 192 198 197 191 193 215 240 226 104 120 165 165 158 152 90 61 53 65 80 6 324 58 356 320 299 296 104 353 62 94 123 98 354 301 48 91 116 115 111 114 113 133 153 138 179 174 164 239 237 182 127 284 254 238 213 177 175 204 202 204 222 221 214 211 208 205
231 238 234 225 223 218 211 218 225 217 213 214 210 208 207 205 201 195 192 190 190 192 191 195 191 185 217 236 237 219 96 128 163 163 159 149 92 82 89 94 87 35 6 69 44 19 5 29 67 309 11 130 132 89 53 24 52 111 126 129 126 131 130 166 179 150 202 172 154 268 275 249 168 233 246 206 97 152 198 217 203 212 228 223 220 212 207 210
235 235 231 233 231 221 218 225 222 212 207 208 208 210 211 207 202 193 190 189 189 191 188 191 192 189 243 246 248 133 116 138 160 161 157 138 109 112 115 101 89 48 355 80 71 38 52 41 339 339 51 165 150 107 97 89 41 118 170 192 157 182 185 181 176 147 220 184 106 296 275 249 209 227 245 195 133 160 205 231 213 216 226 219 220 208 205 210
233 226 226 232 228 217 217 220 213 203 199 202 204 211 211 206 200 192 189 189 188 189 187 189 189 192 241 237 123 110 132 143 154 154 150 136 114 111 111 106 96 83 64 93 90 69 76 28 329 52 46 309 120 101 131 129 143 149 202 258 182 209 202 175 160 145 208 160 103 254 274 258 210 222 232 150 147 185 222 243 232 224 223 218 216 209 214 210
226 221 221 221 218 214 213 212 210 201 195 196 198 205 207 202 197 190 188 188 188 188 186 188 185 195 235 193 97 138 139 134 143 148 151 140 118 109 103 104 102 98 98 95 91 87 78 42 68 111 46 9 97 144 158 142 197 176 186 250 226 238 167 147 153 169 195 165 148 224 262 278 248 201 155 120 163 209 240 247 240 234 224 219 215 215 221 214
216 216 218 213 211 212 209 207 207 202 192 185 185 190 191 191 187 184 186 184 186 187 183 190 186 202 230 169 113 161 142 134 147 160 158 146 137 128 112 107 103 97 95 93 89 80 65 34 138 125 75 43 144 173 163 157 201 195 210 212 206 238 152 138 148 182 195 142 179 212 252 267 265 123 105 104 179 211 248 256 251 243 230 223 217 218 226 222
206 213 215 209 208 208 205 203 203 202 197 184 175 173 173 175 175 177 180 177 179 177 171 191 191 229 248 154 126 163 164 166 169 170 163 152 150 140 126 114 102 95 92 88 87 76 51 43 41 98 111 158 188 191 183 189 201 196 235 231 176 218 210 149 135 184 206 134 189 217 257 273 229 117 123 151 186 206 242 257 257 254 244 231 222 221 225 226
208 215 211 203 206 205 200 201 202 202 200 181 159 153 156 158 163 166 165 165 162 155 164 234 190 233 262 116 135 172 161 167 169 172 170 158 141 135 135 126 110 111 113 100 98 97 34 73 123 231 185 204 208 207 207 211 214 192 216 247 212 234 252 222 144 145 180 205 219 221 244 263 262 241 190 175 187 211 242 257 259 261 257 241 226 223 223 224
212 214 207 200 202 201 197 200 201 199 187 169 148 137 135 133 141 143 142 143 125 110 147 293 188 224 220 159 154 130 125 143 158 165 176 164 146 147 151 137 136 142 143 140 152 183 184 146 215 213 179 208 202 206 214 221 260 200 188 229 237 228 242 258 217 140 173 208 239 235 242 258 263 265 256 233 216 223 248 261 261 261 259 250 233 226 224 222
209 211 204 197 198 199 197 194 194 192 168 148 133 121 114 110 116 129 144 153 151 151 186 185 186 206 152 144 114 91 114 135 143 147 161 156 151 158 145 138 154 172 177 173 165 169 189 178 210 221 198 204 201 213 228 10 9 2 171 263 271 250 246 258 129 125 187 230 245 245 250 261 267 267 266 261 247 238 250 258 261 257 254 251 240 232 225 222
205 205 198 192 193 195 197 191 185 181 161 143 135 124 122 135 139 157 177 206 216 237 353 211 184 144 89 116 109 110 117 122 137 142 153 156 155 158 149 147 162 198 215 195 141 143 263 210 203 219 224 219 206 207 211 48 36 347 308 279 268 273 274 275 114 121 171 256 257 254 255 262 268 271 270 270 265 256 255 255 255 250 245 244 239 235 226 225
199 199 193 189 191 191 192 189 185 181 169 159 166 173 171 167 175 166 164 212 233 43 357 350 65 80 84 113 134 137 124 115 146 146 158 164 170 178 166 168 190 196 186 119 104 124 232 231 222 220 240 35 169 166 105 71 31 259 255 263 258 251 267 283 81 128 161 231 264 267 267 263 262 269 270 269 264 255 253 254 254 251 248 246 240 237 230 223
196 197 192 187 188 187 188 190 192 189 178 180 207 236 262 178 183 151 156 213 207 148 320 333 60 98 84 114 156 171 184 154 146 157 167 170 187 200 169 179 212 192 144 138 143 164 208 230 226 163 84 71 78 117 184 225 229 236 239 249 259 257 275 281 124 122 171 225 274 284 281 271 261 263 262 258 257 252 251 253 256 257 256 253 247 242 237 222
200 196 190 185 182 181 186 191 190 189 189 200 216 237 283 219 145 150 184 232 180 157 210 215 215 158 121 135 176 195 202 164 158 170 172 178 188 203 172 187 215 182 158 189 198 205 215 223 199 98 103 123 119 148 179 206 221 224 231 240 248 269 303 271 144 84 240 233 291 299 286 273 254 250 252 250 251 254 257 257 256 255 254 254 255 252 248 236
200 196 192 183 176 179 180 179 180 193 207 222 232 235 235 162 151 169 219 259 167 149 189 207 277 194 154 129 179 197 209 179 169 163 172 186 169 162 191 198 210 194 190 206 212 229 226 80 70 117 157 186 163 164 185 206 221 217 221 236 252 264 275 271 317 328 284 236 301 304 286 272 231 226 238 240 239 246 251 252 251 248 246 250 254 253 249 245
194 193 192 181 176 175 165 168 188 200 206 231 237 224 210 180 168 186 218 240 206 154 159 188 204 205 164 124 172 192 198 181 146 143 169 191 167 153 187 199 214 212 207 205 217 240 229 87 108 149 160 198 186 185 196 208 234 221 211 225 252 276 288 283 311 333 300 248 105 335 303 289 167 199 219 180 193 228 235 237 244 247 246 241 241 242 239 238
194 191 189 182 177 166 158 175 199 188 187 225 226 210 207 201 172 173 200 242 232 172 148 172 170 181 168 151 157 141 205 197 81 102 159 189 241 160 181 161 209 236 205 191 223 253 171 118 151 153 155 178 194 215 197 198 241 238 202 228 253 268 281 282 293 302 292 291 315 27 307 289 255 230 231 202 207 237 241 240 246 252 252 239 231 232 231 230
195 191 186 184 178 166 156 167 169 163 173 220 215 203 201 196 168 145 193 239 240 166 138 165 187 175 163 159 162 158 208 153 108 111 151 173 197 82 220 177 158 238 169 153 230 223 139 157 174 160 162 175 198 224 186 191 231 240 80 9 227 234 248 257 278 261 280 313 294 199 203 275 283 245 220 211 221 240 244 249 254 258 259 246 233 229 227 229
197 192 183 187 185 172 149 122 159 167 205 205 196 197 192 184 169 125 205 231 219 139 141 156 129 137 134 149 173 168 104 126 139 152 93 40 200 190 229 199 189 195 173 180 221 181 130 174 182 173 182 196 195 96 159 190 218 75 95 48 85 121 240 230 264 269 286 313 289 191 168 255 284 223 175 191 205 220 234 248 257 265 268 245 225 230 230 225
200 194 184 187 190 184 178 169 176 193 222 191 182 189 183 176 188 178 212 226 163 118 136 142 137 140 137 152 173 150 117 121 164 132 117 106 260 282 238 223 218 192 174 207 230 47 60 187 204 191 200 205 124 48 36 198 196 126 135 104 91 113 124 194 252 284 292 283 266 181 163 249 287 221 152 175 197 198 221 240 248 264 275 248 211 218 212 156
197 197 189 184 188 197 206 236 224 206 205 195 178 176 172 171 201 194 196 212 172 127 96 137 164 162 157 162 175 175 166 115 77 130 144 163 160 244 280 277 256 177 156 236 256 81 82 56 324 236 213 129 98 67 27 31 111 141 150 129 126 169 169 211 238 284 273 266 256 178 175 211 278 207 144 169 189 180 203 220 228 258 273 271 246 164 137 117
194 194 192 188 189 194 195 228 230 206 198 193 168 156 162 179 206 203 192 173 232 149 133 158 158 156 169 173 170 177 176 132 138 156 154 161 169 182 186 169 185 168 186 232 217 143 134 150 157 119 80 123 113 91 51 50 136 160 171 175 190 205 194 213 208 178 239 255 269 144 182 214 239 213 139 148 157 174 209 218 235 266 275 281 278 128 113 109
197 192 192 194 194 192 189 217 222 204 194 169 157 149 174 180 214 226 195 88 178 178 160 169 166 166 179 181 169 169 172 155 164 175 170 172 181 184 193 191 170 181 225 216 190 151 191 198 146 105 168 193 161 127 91 83 191 206 195 182 210 229 218 231 211 194 238 242 143 105 157 239 245 249 254 250 207 202 221 229 258 275 277 282 279 130 113 123
203 196 194 196 198 197 200 211 213 198 176 153 154 166 197 189 202 214 198 164 169 160 139 152 164 171 177 182 179 167 169 170 171 181 180 178 194 199 204 209 191 199 242 196 179 165 191 194 148 148 191 215 204 182 164 182 192 198 192 181 203 221 232 242 226 227 249 235 144 137 160 256 267 264 243 238 231 220 220 225 246 264 268 274 272 136 120 151
208 201 200 199 200 205 207 209 203 179 164 153 158 175 193 205 200 203 211 200 140 84 103 136 150 166 175 180 172 160 165 182 168 173 180 180 204 209 205 216 210 216 254 180 184 184 208 241 177 174 164 177 200 218 196 164 175 199 202 198 215 224 238 249 245 251 267 291 203 166 181 249 275 25 220 232 229 219 224 225 228 247 255 263 267 168 145 187
213 204 203 198 199 208 210 210 199 171 163 159 170 180 192 204 199 208 213 181 127 109 112 131 142 161 173 159 151 165 170 201 173 176 185 188 207 207 200 207 205 206 196 193 195 178 216 246 160 154 132 166 184 217 147 134 165 199 196 215 235 241 244 257 285 262 317 323 267 196 227 256 259 266 196 166 188 202 217 225 222 241 247 252 268 256 204 215
210 203 200 193 196 205 206 207 193 172 171 173 177 189 203 202 205 214 194 134 137 136 126 137 148 166 176 161 192 191 214 100 168 179 196 203 224 219 211 206 194 197 196 193 190 162 210 259 114 111 66 161 182 242 152 161 189 176 180 208 225 15 271 246 252 99 100 282 262 212 249 268 282 271 210 183 203 203 202 217 221 234 243 249 264 268 260 250
203 202 202 194 196 200 201 202 187 173 180 200 189 198 210 211 217 214 154 133 140 137 136 155 171 183 182 175 194 188 173 140 164 186 191 188 226 222 213 214 194 196 202 202 217 210 210 244 90 163 166 123 355 355 93 356 19 150 186 194 108 49 325 246 255 259 225 259 263 226 253 266 275 277 188 178 208 215 208 221 228 234 240 245 252 255 261 266
194 193 211 207 199 197 197 194 180 169 167 192 200 209 215 218 220 202 152 136 141 149 163 177 174 188 187 180 186 177 172 171 171 190 186 172 217 206 193 204 199 198 203 202 228 253 209 224 196 10 252 104 69 217 199 182 66 22 279 197 147 216 221 202 224 252 244 255 269 255 264 265 234 239 227 188 189 199 212 219 227 236 234 229 242 253 253 244
183 173 226 212 200 198 195 185 169 157 146 176 199 211 215 217 216 193 156 147 155 168 186 192 179 191 197 182 164 162 177 184 166 178 193 182 205 192 179 184 192 198 197 191 204 172 172 224 220 31 333 115 134 206 206 175 159 313 294 248 230 250 243 209 204 235 248 252 273 280 278 267 230 230 243 212 187 193 207 207 213 231 231 219 231 256 249 206
174 168 233 208 201 199 190 176 159 156 173 189 201 202 207 213 201 178 165 159 173 184 200 205 189 186 197 183 159 158 184 195 171 182 202 183 191 198 185 182 172 182 189 189 202 175 146 221 219 131 316 187 185 204 202 188 179 193 214 212 200 180 257 278 227 226 252 257 269 283 279 271 234 171 210 196 189 196 191 184 197 211 218 209 182 174 215 240
162 193 211 194 196 188 177 170 163 164 178 210 215 201 197 215 186 184 182 166 195 203 219 217 204 196 189 181 174 167 175 195 185 193 207 190 202 212 183 182 169 157 170 185 202 198 177 205 203 169 186 209 208 193 202 204 189 195 203 204 202 189 177 225 227 208 213 249 252 269 277 272 139 112 160 152 166 188 177 201 208 179 175 181 167 170 192 245
200 227 167 174 182 173 163 180 176 146 185 217 218 225 298 335 170 183 178 167 213 215 135 228 218 208 191 183 184 167 167 191 191 197 213 206 213 213 177 180 170 155 158 179 199 198 182 198 214 205 200 206 185 67 64 316 296 247 235 218 210 193 187 209 223 202 181 223 255 277 277 273 140 108 137 129 126 176 220 218 191 158 163 175 176 181 176 197
227 228 131 168 175 167 162 198 162 146 218 208 212 255 276 296 230 182 176 182 199 196 189 212 217 212 203 191 183 169 170 190 193 198 215 217 216 206 169 174 167 160 166 178 181 175 156 196 220 223 211 182 132 102 91 58 274 250 249 234 220 206 204 213 232 235 186 201 224 227 252 264 315 93 113 105 97 291 251 211 176 159 176 182 166 169 189 195
224 234 85 174 177 172 180 196 166 183 208 180 193 219 239 273 252 222 202 193 193 191 196 204 205 212 214 195 187 181 178 189 199 201 211 215 210 150 149 171 169 169 182 180 161 161 166 189 204 219 226 209 192 199 202 168 188 232 222 209 218 217 212 211 282 288 243 224 219 219 245 256 261 90 134 150 151 185 208 216 190 164 176 192 147 152 198 205
213 216 347 183 180 181 198 189 163 184 185 171 189 205 217 236 225 224 231 216 209 200 202 200 183 189 189 178 196 193 188 202 212 204 207 208 185 70 150 173 179 190 192 110 134 165 175 183 186 200 219 220 212 211 203 177 172 213 223 210 212 214 212 212 213 224 240 239 226 220 247 258 255 126 137 151 173 189 190 200 214 201 201 224 211 199 206 205
217 207 204 188 188 198 205 171 158 167 167 173 185 195 204 213 210 205 221 237 233 203 234 255 158 170 171 177 194 198 198 211 215 184 204 204 162 95 171 179 193 200 158 98 135 161 153 197 198 206 221 226 229 219 127 134 157 194 208 206 207 210 211 215 222 220 231 245 240 227 240 259 265 251 213 190 198 202 201 202 223 235 213 207 236 234 217 212
238 225 193 180 213 214 201 172 171 182 181 181 184 179 194 207 210 187 197 221 210 180 218 335 187 192 183 181 192 198 198 205 192 157 198 198 141 85 69 187 208 183 114 115 162 140 116 219 213 218 232 237 249 255 159 145 174 199 199 201 205 208 209 210 223 229 230 239 249 241 234 248 264 263 255 250 243 237 230 219 227 233 214 204 222 221 219 233
227 257 213 195 262 216 203 188 181 188 188 182 187 191 192 202 203 184 190 207 204 180 180 233 237 220 208 195 194 192 188 192 196 195 192 171 137 130 109 91 235 131 116 142 171 117 155 222 218 220 239 247 256 261 217 181 199 206 198 199 200 202 206 210 223 232 231 231 248 256 250 247 260 265 261 258 262 267 265 252 246 239 217 216 222 207 217 236
223 270 265 262 267 228 227 204 183 185 186 178 188 204 196 200 202 198 185 179 197 202 186 209 228 221 221 222 210 199 190 187 204 212 183 153 152 159 158 165 144 87 133 139 88 111 181 219 228 228 247 256 258 261 246 232 238 230 217 212 205 202 204 210 221 228 231 236 245 256 261 258 258 263 269 275 274 276 282 279 262 244 235 240 243 232 225 229
218 261 218 212 234 245 276 224 187 185 183 177 191 203 194 199 202 200 188 176 191 198 189 211 223 214 217 226 225 228 221 209 221 223 190 175 183 181 191 187 131 78 151 143 125 307 200 205 230 236 256 262 260 260 256 254 261 259 249 241 232 223 212 210 217 223 229 236 239 246 258 262 260 262 272 278 276 277 279 273 261 257 257 253 251 251 247 239
234 344 353 238 230 208 211 213 194 196 187 179 192 190 189 206 203 193 191 190 195 191 188 207 215 202 211 223 225 234 236 235 242 248 130 193 207 199 218 202 137 132 153 158 130 121 179 199 240 214 239 254 254 255 258 263 272 274 267 252 240 236 229 220 219 219 222 230 236 243 252 260 264 267 270 272 272 274 272 269 267 267 266 261 258 262 263 258
222 291 330 287 246 207 202 213 204 204 197 190 198 182 179 207 203 184 189 219 214 206 199 206 205 185 196 213 218 228 231 230 231 147 83 94 70 63 104 155 140 143 158 173 155 145 172 189 208 203 221 249 251 251 252 249 250 250 248 243 236 235 239 239 232 226 222 223 231 239 241 250 264 270 268 267 270 268 267 269 268 266 265 262 259 263 268 268